Location: Gleizolles
(44.4833°N, 6.7667°E)
Time: 02:37:02
(UTC+00:00)

Vanguard 1 Rocket - Pass Details

Date: 25 June 2024
Orbit: 650 x 4219 km, 34.3° (Epoch: 15 July)

Event Time Altitude Azimuth Distance (km) Brightness Sun altitude
Rises 22:31:02 0° 201° (SSW) 4,449 - -20.6°
Reaches altitude 10° 22:34:07 10° 188° (S) 3,873 - -20.7°
Exits shadow 22:40:33 26° 149° (SSE) 3,545 9.8 -21.0°
Maximum altitude 22:42:43 27° 135° (SE) 3,721 10.0 -21.1°
Drops below altitude 10° 22:56:29 10° 87° (E) 6,356 11.6 -21.6°
Sets 23:03:33 0° 78° (ENE) 7,895 12.2 -21.8°
